Location: Domont
(49.0278°N, 2.3264°E)
Time: 01:30:20
(UTC+00:00)

XW-2A - Pass Details

Date: 01 July 2022
Orbit: 396 x 406 km, 97.2° (Epoch: 08 August)

Event Time Altitude Azimuth Distance (km) Brightness Sun altitude
Exits shadow 21:09:03 - 189° (S) 1,841 ? -9.0°
Reaches altitude 10° 21:10:02 10° 194° (SSW) 1,443 ? -9.1°
Maximum altitude 21:12:53 34° 262° (W) 678 ? -9.4°
Drops below altitude 10° 21:15:45 10° 330° (NNW) 1,453 ? -9.7°
Sets 21:17:51 0° 340° (NNW) 2,317 ? -9.9°
